星链-3179 (STARLINK-3179 )

导读

STARLINK-3179是美国SpaceX星链互联网卫星星座中的一员,于2022年1月19日发射升空,旨在为全球提供低延迟、高速率的卫星互联网服务。作为星链星座组网的组成部分,该卫星运行在近地轨道,参与构建覆盖全球的太空通信网络,为偏远地区用户提供网络接入,推动卫星互联网技术的商用化发展。

Basic Information
目录编号:
51141
目录名称:
STARLINK-3179
国际标识:
2022-005AP
轨道中心:
EARTH
卫星名称:
星链-3179
卫星全名:
星链-3179 (STARLINK-3179 )
卫星状态:
在轨 (已飞行1689 天)
发射日期:
2022-01-19 UTC
国别 :
美国 (US)
星等 :
--
Orbit Information
数据来源 国际轨道数据 AOE轨道数据
星历时间 2026-09-03T14:39:38+0800
23小时前
查看轨道信息
2026-09-03T11:00:00+0800
1天前
查看轨道信息
半长轴 6840.884km 6840.879km
偏心率 0.0001287 0.0001177
轨道倾角 53.159° 53.156°
近地点辐角 93.895° 66.357°
升交点赤经 209.968° 210.684°
平近点角 266.220° 170.773°
近地点 461.866km 461.936km
远地点 463.628km 463.548km
周期 93.849分钟 93.849分钟
每日圈数 15.343853 15.343871
Detailed Information
固有亮度:
5
最大亮度:
2.5
卫星平台:
Starlink v1.5
覆盖范围:
全球
运营商:
太空探索技术公司
运营商所在国:
美国
制造商(研发单位):
太空探索技术公司
制造商所在国:
美国
使用方式:
暂无
Satellite Introduction
星链(Starlink)计划是由太空探索技术公司(SpaceX)提出的一个巨型低轨卫星互联网星座项目,计划在2019年至2024年间在太空搭建由约1.2万颗卫星组成的“星链”网络,其中1584颗将部署在地球上空550千米处的近地轨道,并从2020年开始工作。该卫星仍在工作。
2D Orbit Map
3D Orbit Map
Orbit Altitude Analysis Chart
Orbit Inclination Analysis Chart
Orbit Comprehensive Analysis Chart
View Comprehensive Chart
Conjunction Data List
Event ID Objects TCA Miss Dist (km) Collision Risk Probability Collision Risk Index (CRI) Action
CDM_260905-153805-114106-426121
2026-09-05T
15:38:09+0000
0.342 km
远距离
3.81613E-4 高风险 0.87
CDM_260904-172005-114106-476221
2026-09-04T
17:20:02+0000
0.443 km
远距离
1.817672E-4 高风险 0.8
CDM_260905-015505-114106-476221
2026-09-05T
01:55:53+0000
0.485 km
远距离
1.47346E-4 高风险 0.78
CDM_260905-125705-114106-585821
2026-09-05T
12:57:16+0000
0.404 km
远距离
1.198752E-4 高风险 0.77
CDM_260905-004705-114106-426121
2026-09-05T
00:47:09+0000
0.940 km
远距离
2.891621E-5 中风险 0.64
CDM_260905-103605-114106-585821
2026-09-05T
10:36:35+0000
0.862 km
远距离
1.282858E-5 中风险 0.57
CDM_260901-023604-702905-114121
2026-09-01T
02:36:20+0000
1.848 km
极远距离
2.75643E-6 低风险 0.44
CDM_260905-145605-114106-345521
2026-09-05T
14:56:19+0000
2.257 km
极远距离
1.913281E-6 低风险 0.41
CDM_260829-221605-114106-190522
OBJECT M (61905)
2026-08-29T
22:16:30+0000
2.263 km
极远距离
1.774367E-6 低风险 0.4
CDM_260905-090205-114106-585821
2026-09-05T
09:02:47+0000
2.702 km
极远距离
5.647589E-7 极低风险 0.3